KC0HJX Weather Reports


time (UTC)temp
C
wind
direction
speed
KPH
gust
KPH
rain 1hr
cm
rain 24hr
cm
rain mn
cm
humidity
%
barometer
mb
20260506005003 10 19 8.0 22.5 0.00 0.00 0.00 80 1011.1
20260506004503 10 16 8.0 24.1 0.00 0.00 0.00 80 1010.9
20260506004003 10 31 6.4 24.1 0.00 0.00 0.00 79 1010.8
20260506003524 10 33 11.3 24.1 0.00 0.00 0.00 79 1010.5
20260506003003 10 79 8.0 29.0 0.00 0.00 0.00 79 1010.2
20260506002503 10 35 11.3 29.0 0.00 0.00 0.00 79 1010.6
20260506002002 10 32 9.7 25.7 0.00 0.00 0.00 79 1010.8
20260506001503 10 14 9.7 22.5 0.00 0.00 0.00 79 1010.5
20260506001003 10 30 9.7 20.9 0.00 0.00 0.00 79 1010.5
20260506000503 10 48 4.8 22.5 0.00 0.00 0.00 78 1010.7
20260506000003 10 9 4.8 27.4 0.00 0.00 0.00 78 1010.4
20260505235524 10 35 6.4 27.4 0.00 0.00 0.00 77 1010.3
20260505235003 10 78 9.7 20.9 0.00 0.00 0.00 76 1010.3
20260505234503 10 11 8.0 22.5 0.00 0.00 0.00 76 1010.2
20260505234003 11 25 11.3 22.5 0.00 0.00 0.00 75 1010.8
20260505233503 11 70 6.4 30.6 0.00 0.00 0.00 75 1010.7
20260505233003 11 23 11.3 30.6 0.00 0.00 0.00 74 1011.1
20260505232502 11 19 11.3 29.0 0.00 0.00 0.00 74 1011.0
20260505232002 11 38 14.5 29.0 0.00 0.00 0.00 73 1010.7
20260505231502 11 29 9.7 27.4 0.00 0.00 0.00 74 1011.1
20260505231003 11 33 11.3 27.4 0.00 0.00 0.00 73 1010.8
20260505230503 11 70 3.2 27.4 0.00 0.00 0.00 74 1010.1
20260505230002 11 21 11.3 27.4 0.00 0.00 0.00 73 1010.3
20260505225503 11 44 12.9 27.4 0.00 0.00 0.00 73 1010.5
20260505225003 11 356 4.8 25.7 0.00 0.00 0.00 74 1010.4
20260505224503 11 8 14.5 25.7 0.00 0.00 0.00 73 1010.2
20260505224003 11 26 11.3 25.7 0.00 0.00 0.00 74 1010.4
20260505223524 11 289 6.4 27.4 0.00 0.00 0.00 74 1010.0
20260505223002 11 38 11.3 27.4 0.00 0.00 0.00 74 1010.2
20260505222503 11 10 11.3 25.7 0.00 0.00 0.00 74 1010.2
20260505222003 11 28 6.4 25.7 0.00 0.00 0.00 74 1010.1
20260505221502 11 40 9.7 24.1 0.00 0.00 0.00 74 1009.8
20260505221003 11 5 6.4 33.8 0.00 0.00 0.00 74 1009.7
20260505220524 11 60 9.7 33.8 0.00 0.00 0.00 74 1009.7
20260505220002 11 22 11.3 24.1 0.00 0.00 0.00 74 1010.1
20260505215503 12 16 11.3 25.7 0.00 0.00 0.00 74 1010.0
20260505215003 12 54 9.7 25.7 0.00 0.00 0.00 73 1009.4
20260505214503 12 39 8.0 27.4 0.00 0.00 0.00 74 1009.3
20260505214003 12 1 9.7 27.4 0.00 0.00 0.00 73 1009.0
20260505213503 12 22 14.5 29.0 0.00 0.00 0.00 73 1009.2
20260505213003 12 25 16.1 37.0 0.00 0.00 0.00 73 1008.8
20260505212502 12 9 14.5 37.0 0.00 0.00 0.00 73 1009.7
20260505212024 12 5 11.3 27.4 0.00 0.00 0.00 74 1009.1
20260505211524 12 17 11.3 29.0 0.00 0.00 0.00 74 1008.8
20260505211003 12 44 12.9 38.6 0.00 0.00 0.00 75 1008.5
20260505210503 12 18 6.4 38.6 0.00 0.00 0.00 74 1009.2
20260505210003 12 26 16.1 33.8 0.00 0.00 0.00 74 1008.8
20260505205503 12 42 14.5 35.4 0.00 0.00 0.00 75 1009.0
20260505205002 12 20 17.7 35.4 0.00 0.00 0.00 74 1009.6
20260505204502 12 8 9.7 27.4 0.00 0.00 0.00 74 1009.7
20260505204024 12 44 6.4 43.5 0.00 0.00 0.00 74 1010.1
20260505203503 12 356 8.0 43.5 0.00 0.00 0.00 75 1009.8
20260505203003 12 46 12.9 43.5 0.00 0.00 0.00 74 1009.4
20260505202503 12 30 11.3 29.0 0.00 0.00 0.00 74 1008.9
20260505202003 12 26 16.1 30.6 0.00 0.00 0.00 74 1009.0
20260505201524 12 57 9.7 30.6 0.00 0.00 0.00 74 1008.6
20260505201003 12 57 8.0 30.6 0.00 0.00 0.00 76 1008.8
20260505200502 12 14 17.7 30.6 0.00 0.00 0.00 75 1008.6
20260505200003 12 25 12.9 29.0 0.00 0.00 0.00 76 1008.7
20260505195503 12 42 9.7 30.6 0.00 0.00 0.00 77 1008.7
20260505195024 12 28 14.5 30.6 0.00 0.00 0.00 78 1008.6
20260505194503 12 41 12.9 30.6 0.00 0.00 0.00 79 1009.1
20260505194003 12 36 4.8 25.7 0.00 0.00 0.00 79 1008.9
20260505193503 12 45 8.0 27.4 0.00 0.00 0.00 79 1009.1
20260505193003 12 1 11.3 29.0 0.00 0.00 0.00 79 1008.9
20260505192503 12 21 12.9 29.0 0.00 0.00 0.00 79 1009.4
20260505192002 12 16 14.5 27.4 0.00 0.00 0.00 80 1008.6
20260505191503 12 51 6.4 27.4 0.00 0.00 0.00 81 1008.5
20260505191003 12 354 9.7 29.0 0.00 0.00 0.00 80 1008.1
20260505190502 12 4 8.0 30.6 0.00 0.00 0.00 80 1008.6
20260505190003 12 29 11.3 30.6 0.00 0.00 0.00 80 1008.6
20260505185503 13 19 11.3 30.6 0.00 0.00 0.00 79 1008.4
20260505185003 13 15 11.3 30.6 0.00 0.00 0.00 80 1008.4
20260505184503 13 22 8.0 24.1 0.00 0.00 0.00 79 1008.2
20260505184003 13 358 9.7 25.7 0.00 0.00 0.00 79 1008.6
20260505183503 13 52 9.7 25.7 0.00 0.00 0.00 78 1008.1
20260505183003 13 22 9.7 27.4 0.00 0.00 0.00 78 1008.0
20260505182503 13 32 9.7 27.4 0.00 0.00 0.00 78 1008.2
20260505182003 13 22 12.9 24.1 0.00 0.00 0.00 78 1008.1
20260505181503 13 37 8.0 24.1 0.00 0.00 0.00 79 1007.8
20260505181002 13 31 11.3 25.7 0.00 0.00 0.00 78 1007.8
20260505180523 13 54 8.0 25.7 0.00 0.00 0.00 79 1007.8
20260505180003 13 38 12.9 29.0 0.00 0.00 0.00 79 1007.9
20260505175503 13 34 11.3 35.4 0.00 0.00 0.00 80 1008.0
20260505175024 13 18 12.9 35.4 0.00 0.00 0.00 79 1007.5
20260505174503 13 17 9.7 27.4 0.00 0.00 0.00 79 1007.8
20260505174003 13 19 4.8 27.4 0.00 0.00 0.00 81 1007.5
20260505173503 13 17 11.3 35.4 0.00 0.00 0.00 80 1007.5
20260505173003 13 30 11.3 35.4 0.00 0.00 0.00 81 1007.5
20260505172524 13 54 17.7 30.6 0.00 0.00 0.00 81 1007.2
20260505172003 13 4 11.3 29.0 0.00 0.00 0.00 81 1007.4
20260505171503 13 47 9.7 29.0 0.00 0.00 0.00 82 1007.0
20260505171023 13 36 9.7 29.0 0.00 0.00 0.00 82 1007.2
20260505170503 13 31 12.9 33.8 0.00 0.00 0.00 82 1007.1
20260505170002 13 26 12.9 33.8 0.00 0.00 0.00 82 1006.7
20260505165502 13 48 6.4 29.0 0.00 0.00 0.00 82 1007.0
20260505165003 13 29 6.4 27.4 0.00 0.00 0.00 82 1006.6
20260505164524 13 33 14.5 27.4 0.00 0.00 0.00 82 1006.7
20260505164003 14 43 6.4 24.1 0.00 0.00 0.00 83 1006.7
20260505163503 14 60 9.7 20.9 0.00 0.00 0.00 83 1006.7
20260505163003 14 28 4.8 33.8 0.00 0.00 0.00 83 1006.7
20260505162523 14 89 4.8 35.4 0.00 0.00 0.00 82 1006.8
20260505162003 14 44 12.9 35.4 0.00 0.00 0.00 82 1005.9
20260505161503 15 47 4.8 37.0 0.00 0.00 0.00 81 1005.9
20260505161002 15 5 12.9 37.0 0.00 0.00 0.00 80 1005.7
20260505160503 15 10 11.3 37.0 0.00 0.00 0.00 81 1004.8
20260505153003 17 46 8.0 35.4 0.00 0.00 0.00 81 1004.5
20260505152503 17 357 16.1 35.4 0.00 0.00 0.00 80 1004.2
20260505152003 17 12 14.5 33.8 0.00 0.00 0.00 79 1004.1
20260505151503 19 313 6.4 33.8 0.00 0.00 0.00 77 1003.9
20260505151003 20 18 8.0 22.5 0.00 0.00 0.00 84 1003.6
20260505150503 20 37 6.4 20.9 0.00 0.00 0.00 85 1003.6
20260505140503 20 82 6.4 14.5 0.00 0.00 0.00 85 1002.4
20260505125003 19 62 3.2 9.7 0.00 0.00 0.00 85 1002.1
20260505124503 19 33 1.6 11.3 0.00 0.00 0.00 85 1001.8
20260505124003 19 38 4.8 11.3 0.00 0.00 0.00 85 1002.2
20260505123503 19 84 3.2 4.8 0.00 0.00 0.00 85 1001.9
20260505123002 19 48 1.6 4.8 0.00 0.00 0.00 85 1002.0
20260505122503 19 0 0.0 1.6 0.00 0.00 0.00 85 1001.7
20260505122024 19 0 0.0 1.6 0.00 0.00 0.00 84 1001.5
20260505121503 20 162 0.0 1.6 0.00 0.00 0.00 84 1001.6
20260505121003 20 162 0.0 1.6 0.00 0.00 0.00 83 1001.4
20260505120503 20 0 0.0 1.6 0.00 0.00 0.00 83 1001.1
20260505120003 20 0 0.0 1.6 0.00 0.00 0.00 82 1001.5
20260505115502 20 0 0.0 1.6 0.00 0.00 0.00 81 1001.2
20260505115003 20 320 0.0 1.6 0.00 0.00 0.00 80 1001.6
20260505114503 20 194 0.0 1.6 0.00 0.00 0.00 79 1000.9
20260505114003 20 216 0.0 4.8 0.00 0.00 0.00 79 1001.1
20260505113523 21 0 0.0 4.8 0.00 0.00 0.00 78 1000.8
20260505113003 21 8 3.2 4.8 0.00 0.00 0.00 78 1000.9
20260505112503 21 334 3.2 6.4 0.00 0.00 0.00 77 1000.7
20260505112003 21 212 0.0 11.3 0.00 0.00 0.00 76 1000.2
20260505111503 21 241 1.6 11.3 0.00 0.00 0.00 75 1000.3
20260505111003 21 247 3.2 11.3 0.00 0.00 0.00 75 1000.1
20260505110503 21 248 3.2 11.3 0.00 0.00 0.00 75 1000.0
20260505102003 22 210 6.4 16.1 0.00 0.00 0.00 75 999.0
20260505101503 22 256 4.8 14.5 0.00 0.00 0.00 74 999.0
20260505101003 22 303 3.2 17.7 0.00 0.00 0.00 74 999.0
20260505100503 22 262 4.8 17.7 0.00 0.00 0.00 74 999.0
20260505100024 22 268 3.2 14.5 0.00 0.00 0.00 74 999.0
20260505095503 22 251 3.2 14.5 0.00 0.00 0.00 74 999.0
20260505095003 22 291 3.2 14.5 0.00 0.00 0.00 74 999.0
20260505094524 22 267 4.8 17.7 0.00 0.00 0.00 74 998.9
20260505094003 22 260 3.2 17.7 0.00 0.00 0.00 74 999.2
20260505093503 22 238 1.6 12.9 0.00 0.00 0.00 74 999.2
20260505093003 22 238 1.6 14.5 0.00 0.00 0.00 74 999.0
20260505092503 22 239 3.2 16.1 0.00 0.00 0.00 74 999.3
20260505092024 22 247 3.2 16.1 0.00 0.00 0.00 74 999.2
20260505091503 22 199 3.2 14.5 0.00 0.00 0.00 74 999.3
20260505091002 22 309 4.8 14.5 0.00 0.00 0.00 74 999.2
20260505090503 22 249 3.2 12.9 0.00 0.00 0.00 74 999.4
20260505090003 22 287 3.2 11.3 0.00 0.00 0.00 74 999.3
20260505085502 22 213 3.2 12.9 0.00 0.00 0.00 74 999.6
20260505085002 22 288 1.6 12.9 0.00 0.00 0.00 75 999.6
20260505084503 22 229 4.8 12.9 0.00 0.00 0.00 75 999.5
20260505084003 22 273 1.6 11.3 0.00 0.00 0.00 75 999.4
20260505083502 22 238 3.2 12.9 0.00 0.00 0.00 75 999.7
20260505083003 22 63 1.6 12.9 0.00 0.00 0.00 75 999.6
20260505082503 22 171 4.8 14.5 0.00 0.00 0.00 75 999.6
20260505082003 22 250 3.2 14.5 0.00 0.00 0.00 75 1000.1
20260505081503 22 336 1.6 9.7 0.00 0.00 0.00 76 1000.2
20260505081003 22 276 1.6 17.7 0.00 0.00 0.00 76 999.6
20260505080503 22 297 3.2 17.7 0.00 0.00 0.00 76 999.6
20260505080003 22 278 1.6 11.3 0.00 0.00 0.00 75 999.9
20260505075503 22 289 3.2 11.3 0.00 0.00 0.00 75 999.9
20260505075024 22 293 1.6 11.3 0.00 0.00 0.00 75 999.9
20260505074503 22 264 3.2 12.9 0.00 0.00 0.00 75 1000.0
20260505074003 22 313 1.6 20.9 0.00 0.00 0.00 75 1000.0
20260505073503 22 280 3.2 20.9 0.00 0.00 0.00 75 999.7
20260505073003 22 266 3.2 9.7 0.00 0.00 0.00 75 999.8
20260505072503 22 202 3.2 22.5 0.00 0.00 0.00 75 1000.4
20260505072003 22 240 3.2 22.5 0.00 0.00 0.00 75 1000.3
20260505071503 22 166 3.2 14.5 0.00 0.00 0.00 75 1000.2
20260505071003 22 223 1.6 14.5 0.00 0.00 0.00 75 1000.3
20260505070503 22 236 3.2 12.9 0.00 0.00 0.00 74 1000.3
20260505070024 22 227 3.2 12.9 0.00 0.00 0.00 74 1000.6
20260505065503 22 244 3.2 12.9 0.00 0.00 0.00 74 1000.7
20260505065003 22 247 3.2 12.9 0.00 0.00 0.00 74 1000.7
20260505064503 22 268 3.2 16.1 0.00 0.00 0.00 74 1000.7
20260505064003 22 272 4.8 16.1 0.00 0.00 0.00 74 1000.9
20260505063503 22 282 3.2 22.5 0.00 0.00 0.00 74 1000.8
20260505063003 22 169 4.8 24.1 0.00 0.00 0.00 74 1000.6
20260505062502 22 244 3.2 24.1 0.00 0.00 0.00 74 1000.8
20260505062003 22 234 4.8 12.9 0.00 0.00 0.00 74 1001.0
20260505061503 22 157 3.2 11.3 0.00 0.00 0.00 74 1000.9
20260505061003 22 235 3.2 14.5 0.00 0.00 0.00 73 1001.0
20260505060502 22 300 3.2 20.9 0.00 0.00 0.00 73 1000.9
20260505060003 22 209 4.8 20.9 0.00 0.00 0.00 73 1001.2
20260505055503 22 214 3.2 14.5 0.00 0.00 0.00 73 1001.2
20260505055003 22 1 3.2 14.5 0.00 0.00 0.00 73 1001.1
20260505054503 22 114 3.2 20.9 0.00 0.00 0.00 72 1001.4
20260505054003 22 229 3.2 20.9 0.00 0.00 0.00 72 1001.3
20260505053524 22 195 6.4 20.9 0.00 0.00 0.00 72 1001.3
20260505053003 22 249 3.2 17.7 0.00 0.00 0.00 72 1001.2
20260505052503 22 180 3.2 16.1 0.00 0.00 0.00 72 1001.3
20260505052003 22 263 1.6 14.5 0.00 0.00 0.00 72 1001.4
20260505051503 22 156 0.0 14.5 0.00 0.00 0.00 72 1001.2
20260505051003 22 170 4.8 16.1 0.00 0.00 0.00 72 1001.4
20260505050524 22 220 3.2 16.1 0.00 0.00 0.00 72 1001.4
20260505041503 22 180 3.2 27.4 0.00 0.00 0.00 71 1002.0
20260505041003 23 221 1.6 27.4 0.00 0.00 0.00 70 1002.0
20260505040503 23 177 4.8 20.9 0.00 0.00 0.00 70 1001.9
20260505040024 23 152 3.2 20.9 0.00 0.00 0.00 70 1002.2
20260505035502 23 238 4.8 20.9 0.00 0.00 0.00 70 1002.0
20260505035003 23 257 6.4 20.9 0.00 0.00 0.00 70 1002.3
20260505034524 23 157 4.8 24.1 0.00 0.00 0.00 69 1002.0
20260505034003 23 146 4.8 24.1 0.00 0.00 0.00 69 1002.2
20260505033503 23 155 8.0 24.1 0.00 0.00 0.00 69 1001.8
20260505033002 23 151 1.6 14.5 0.00 0.00 0.00 69 1002.1
20260505032502 23 204 3.2 22.5 0.00 0.00 0.00 69 1001.5
20260505032003 23 177 4.8 25.7 0.00 0.00 0.00 68 1001.8
20260505031503 23 175 9.7 25.7 0.00 0.00 0.00 68 1001.9
20260505031003 23 223 6.4 20.9 0.00 0.00 0.00 68 1001.7
20260505030503 23 149 4.8 22.5 0.00 0.00 0.00 68 1001.8
20260505030024 23 48 4.8 22.5 0.00 0.00 0.00 67 1001.6
20260505025502 23 157 6.4 25.7 0.00 0.00 0.00 67 1001.9
20260505025003 23 269 6.4 27.4 0.00 0.00 0.00 67 1001.3
20260505024503 23 181 9.7 27.4 0.00 0.00 0.00 67 1001.3
20260505024003 23 214 3.2 17.7 0.00 0.00 0.00 67 1001.5
20260505023503 24 171 6.4 24.1 0.00 0.00 0.00 66 1001.4
20260505023003 24 239 4.8 29.0 0.00 0.00 0.00 66 1001.6
20260505022503 24 187 4.8 29.0 0.00 0.00 0.00 66 1001.3
20260505022003 24 168 6.4 29.0 0.00 0.00 0.00 66 1001.3
20260505021524 24 355 6.4 37.0 0.00 0.00 0.00 65 1001.4
20260505021003 24 126 6.4 37.0 0.00 0.00 0.00 65 1001.1
20260505020503 24 200 8.0 37.0 0.00 0.00 0.00 65 1001.7
20260505020003 24 209 8.0 25.7 0.00 0.00 0.00 65 1001.5
20260505015503 24 186 6.4 25.7 0.00 0.00 0.00 65 1001.5
20260505015003 24 141 6.4 25.7 0.00 0.00 0.00 65 1001.2
20260505014503 25 234 4.8 25.7 0.00 0.00 0.00 64 1001.5
20260505014003 25 147 4.8 25.7 0.00 0.00 0.00 64 1001.2
20260505013503 25 189 6.4 25.7 0.00 0.00 0.00 64 1001.1
20260505013003 25 182 6.4 20.9 0.00 0.00 0.00 63 1001.5
20260505012503 25 181 6.4 20.9 0.00 0.00 0.00 63 1001.3
20260505012003 25 162 4.8 24.1 0.00 0.00 0.00 63 1001.6
20260505011503 25 176 6.4 24.1 0.00 0.00 0.00 63 1001.6
20260505011003 25 148 6.4 24.1 0.00 0.00 0.00 62 1001.8
20260505010503 25 198 6.4 20.9 0.00 0.00 0.00 62 1002.1
20260505010003 25 166 4.8 14.5 0.00 0.00 0.00 62 1001.4
20260505005503 25 159 3.2 25.7 0.00 0.00 0.00 62 1001.6